"startDT [UTC]","vpos","CH4 [ppm]","stdev(CH4) [ppm]","CO2 [ppm]","stdev(CO2) [ppm]","H2O [ppm]","stdev(H2O)","p_LGR [torr]","T_LGR [C]","mt1_LGR [us]","mt2_LGR [us]","T_ECpre [C]","T_EC1 [C]","T_EC2 [C]","p_inlet [hPa]","p_in [hPa]","p_out [hPa]","T_inlet [C]","RH_inlet [%]","dwpt_inlet [C]","T_vent [C]","RH_vent [%]","dwpt_vent [C]","flow_vent [l min-1]","flow_inlet [l min-1]","dwpt_sample [C]","T_room [C]"
2012-04-13 00:00:00,0.0,1.9511,0.0010,403.48,0.35,66.2,33.6,138.12,28.19,24.61,36.34,0.04,-272.73,-272.74,-50,554,-913,22.5,3.0,-24.8,22.6,3.1,-24.3,5.73,2.37,-27.6,27.4
2012-04-13 00:01:00,0.0,1.9512,0.0010,403.45,0.38,57.3,29.6,138.12,28.20,24.61,36.34,0.04,-272.73,-272.74,-50,555,-913,22.5,3.0,-24.7,22.7,3.1,-24.3,5.73,2.39,-27.5,27.4
2012-04-13 00:02:00,0.0,1.9513,0.0009,403.34,0.37,62.5,32.9,138.11,28.21,24.61,36.35,0.04,-272.74,-272.73,-50,555,-913,22.6,3.0,-24.7,22.7,3.1,-24.3,5.73,2.34,-27.5,27.4
2012-04-13 00:03:00,0.0,1.9507,0.0009,403.42,0.43,66.0,37.4,138.11,28.22,24.62,36.35,0.04,-272.73,-272.74,-50,555,-914,22.5,3.0,-24.6,22.7,3.1,-24.2,5.73,2.29,-27.4,27.4
2012-04-13 00:04:00,0.0,1.9510,0.0010,403.55,0.42,77.0,35.3,138.11,28.23,24.62,36.34,0.04,-272.73,-272.73,-53,556,-914,22.6,3.1,-24.5,22.7,3.2,-24.1,5.73,2.29,-27.3,27.5
2012-04-13 00:05:00,0.0,1.9510,0.0009,403.58,0.42,78.3,33.5,138.11,28.24,24.62,36.34,0.04,-272.73,-272.74,-50,556,-913,22.6,3.1,-24.5,22.7,3.2,-24.0,5.73,2.34,-27.3,27.5
2012-04-13 00:06:00,0.0,1.9511,0.0009,403.52,0.40,82.6,33.7,138.11,28.25,24.62,36.35,0.04,-272.74,-272.74,-50,555,-913,22.7,3.1,-24.3,22.7,3.2,-24.0,5.73,2.38,-27.2,27.6
2012-04-13 00:07:00,0.0,1.9516,0.0010,403.68,0.47,85.2,34.1,138.11,28.26,24.61,36.34,0.04,-272.74,-272.73,-50,555,-913,22.7,3.1,-24.3,22.8,3.2,-23.8,5.73,2.37,-27.2,27.6
2012-04-13 00:08:00,0.0,1.9519,0.0011,403.65,0.44,90.5,32.0,138.11,28.27,24.61,36.34,0.04,-272.74,-272.74,-50,555,-913,22.7,3.1,-24.3,22.8,3.2,-23.8,5.73,2.31,-27.1,27.7
2012-04-13 00:09:00,0.0,1.9524,0.0011,403.55,0.47,97.6,33.0,138.11,28.29,24.62,36.35,0.04,-272.74,-272.74,-50,556,-914,22.7,3.1,-24.4,22.9,3.2,-24.0,5.73,2.28,-27.1,27.7
2012-04-13 00:10:00,0.0,1.9510,0.0010,403.69,0.41,89.6,36.7,138.11,28.30,24.62,36.35,0.04,-272.74,-272.74,-50,556,-914,22.7,3.0,-24.5,22.9,3.1,-24.1,5.73,2.32,-27.0,27.8
2012-04-13 00:11:00,0.0,1.9519,0.0010,403.68,0.43,95.9,35.6,138.10,28.31,24.61,36.35,0.04,-272.73,-272.74,-50,556,-913,22.8,3.0,-24.5,22.9,3.1,-24.1,5.73,2.37,-27.0,27.8
2012-04-13 00:12:00,0.0,1.9514,0.0008,403.70,0.48,101.0,34.2,138.10,28.32,24.62,36.35,0.04,-272.74,-272.74,-50,556,-914,22.8,3.0,-24.7,22.9,3.1,-24.3,5.73,2.38,-26.9,27.9
2012-04-13 00:13:00,0.0,1.9513,0.0009,403.69,0.40,100.7,36.8,138.10,28.33,24.61,36.35,0.04,-272.73,-272.74,-50,556,-914,22.8,2.9,-24.9,22.9,3.0,-24.4,5.73,2.29,-26.9,27.4
2012-04-13 00:14:00,0.0,1.9509,0.0008,403.65,0.45,95.4,34.6,138.11,28.34,24.62,36.35,0.04,-272.74,-272.73,-50,556,-914,22.8,2.9,-25.0,22.9,3.0,-24.6,5.73,2.34,-27.0,27.1
2012-04-13 00:15:00,0.0,1.9505,0.0008,403.65,0.43,84.2,38.7,138.11,28.34,24.62,36.35,0.04,-272.73,-272.73,-50,556,-914,22.8,2.8,-25.2,22.9,3.0,-24.7,5.73,2.31,-27.1,26.6
2012-04-13 00:16:00,0.0,1.9496,0.0009,403.46,0.45,72.8,42.3,138.12,28.34,24.62,36.35,0.04,-272.74,-272.74,-51,557,-914,22.8,2.8,-25.3,22.8,2.9,-24.8,5.73,2.43,-27.3,26.3
2012-04-13 00:17:00,0.0,1.9496,0.0009,403.45,0.38,64.4,39.2,138.12,28.33,24.61,36.35,0.04,-272.74,-272.74,-50,557,-914,22.7,2.8,-25.4,22.8,2.9,-25.0,5.73,2.24,-27.5,26.1
2012-04-13 00:18:00,0.0,1.9486,0.0012,403.48,0.48,50.8,35.5,138.13,28.31,24.62,36.34,0.04,-272.73,-272.73,-50,556,-914,22.7,2.8,-25.5,22.7,2.9,-25.1,5.73,2.34,-27.6,25.9
2012-04-13 00:19:00,0.0,1.9476,0.0013,403.58,0.37,42.9,28.4,138.14,28.29,24.61,36.34,0.04,-272.74,-272.74,-51,556,-914,22.6,2.8,-25.6,22.6,2.9,-25.1,5.73,2.44,-27.8,25.7
2012-04-13 00:20:00,0.0,1.9462,0.0011,403.39,0.45,29.0,30.8,138.14,28.27,24.61,36.34,0.04,-272.74,-272.74,-51,556,-914,22.6,2.8,-25.5,22.6,2.9,-25.2,5.73,2.31,-27.9,25.5
2012-04-13 00:21:00,0.0,1.9445,0.0013,403.29,0.43,27.6,26.3,138.15,28.25,24.61,36.33,0.04,-272.73,-272.74,-51,556,-914,22.5,2.8,-25.4,22.5,2.9,-25.1,5.73,2.25,-28.0,25.3
2012-04-13 00:22:00,0.0,1.9442,0.0013,403.24,0.39,18.7,26.9,138.15,28.22,24.61,36.33,0.04,-272.74,-272.74,-50,556,-914,22.5,2.9,-25.3,22.5,3.0,-25.0,5.73,2.41,-28.1,25.5
2012-04-13 00:23:00,0.0,1.9445,0.0010,403.27,0.45,13.6,23.1,138.15,28.20,24.61,36.33,0.04,-272.73,-272.74,-51,555,-914,22.5,2.9,-25.3,22.4,3.0,-25.0,5.73,2.32,-28.1,26.0
2012-04-13 00:24:00,0.0,1.9436,0.0010,403.10,0.38,28.6,30.8,138.14,28.18,24.62,36.33,0.04,-272.74,-272.74,-51,555,-914,22.4,2.9,-25.3,22.4,3.0,-25.0,5.73,2.38,-28.0,26.3
2012-04-13 00:25:00,0.0,1.9442,0.0011,403.16,0.43,32.1,31.1,138.14,28.17,24.61,36.33,0.04,-272.74,-272.73,-51,555,-914,22.5,2.9,-25.2,22.5,3.0,-24.9,5.73,2.25,-28.0,26.6
2012-04-13 00:26:00,0.0,1.9449,0.0010,403.28,0.44,31.7,29.9,138.14,28.16,24.61,36.33,0.04,-272.74,-272.74,-49,554,-912,22.4,2.9,-25.2,22.5,3.0,-24.8,5.73,2.36,-27.9,26.8
2012-04-13 00:27:00,0.0,1.9447,0.0012,403.33,0.41,41.8,32.3,138.13,28.16,24.62,36.33,0.04,-272.74,-272.73,-50,555,-913,22.5,2.9,-25.1,22.5,3.0,-24.7,5.73,2.40,-27.8,26.9
2012-04-13 00:28:00,0.0,1.9457,0.0010,403.39,0.30,46.0,35.6,138.13,28.16,24.61,36.33,0.04,-272.73,-272.74,-51,555,-914,22.5,3.0,-25.0,22.5,3.1,-24.6,5.73,2.33,-27.7,27.0
2012-04-13 00:29:00,0.0,1.9452,0.0011,403.36,0.42,45.1,31.7,138.13,28.16,24.61,36.33,0.04,-272.74,-272.74,-50,554,-914,22.5,3.0,-24.8,22.5,3.1,-24.5,5.73,2.28,-27.6,27.1
2012-04-13 00:30:00,0.0,1.9433,0.0017,403.39,0.43,54.6,30.4,138.13,28.16,24.61,36.34,0.04,-272.74,-272.74,-50,554,-913,22.5,3.0,-24.8,22.5,3.1,-24.4,5.73,2.30,-27.5,27.2
2012-04-13 00:31:00,0.0,1.9467,0.0012,403.39,0.39,58.1,37.5,138.12,28.17,24.61,36.34,0.04,-272.74,-272.74,-51,554,-913,22.5,3.0,-24.7,22.6,3.1,-24.3,5.73,2.37,-27.5,27.3
2012-04-13 00:32:00,0.0,1.9434,0.0011,403.38,0.43,61.6,34.6,138.12,28.18,24.61,36.33,0.04,-272.74,-272.74,-50,554,-913,22.5,3.0,-24.7,22.6,3.1,-24.3,5.73,2.39,-27.4,27.3
2012-04-13 00:33:00,0.0,1.9452,0.0028,403.34,0.47,74.0,36.5,138.12,28.18,24.61,36.34,0.04,-272.73,-272.74,-50,555,-913,22.5,3.1,-24.6,22.6,3.2,-24.2,5.73,2.35,-27.4,27.4
2012-04-13 00:34:00,0.0,1.9478,0.0010,403.50,0.43,61.3,35.5,138.12,28.19,24.61,36.34,0.04,-272.74,-272.74,-50,554,-913,22.5,3.1,-24.5,22.6,3.2,-24.1,5.73,2.29,-27.2,27.4
2012-04-13 00:35:00,0.0,1.9477,0.0019,403.50,0.40,76.1,36.8,138.12,28.20,24.61,36.34,0.04,-272.74,-272.74,-50,555,-913,22.6,3.1,-24.4,22.7,3.2,-23.9,5.73,2.29,-27.2,27.5
2012-04-13 00:36:00,0.0,1.9452,0.0015,403.39,0.40,79.2,35.6,138.11,28.22,24.61,36.35,0.04,-272.74,-272.74,-50,555,-913,22.6,3.1,-24.2,22.7,3.3,-23.8,5.73,2.33,-27.2,27.5
2012-04-13 00:37:00,0.0,1.9488,0.0014,403.43,0.43,73.8,35.8,138.11,28.23,24.61,36.35,0.04,-272.74,-272.74,-50,555,-913,22.6,3.2,-24.2,22.7,3.3,-23.7,5.73,2.37,-27.1,27.6
2012-04-13 00:38:00,0.0,1.9499,0.0012,403.52,0.48,98.0,34.6,138.11,28.24,24.61,36.34,0.04,-272.73,-272.74,-49,555,-913,22.6,3.2,-24.1,22.7,3.3,-23.6,5.73,2.37,-27.0,27.6
2012-04-13 00:39:00,0.0,1.9492,0.0019,403.59,0.48,85.4,33.1,138.11,28.25,24.61,36.34,0.04,-272.73,-272.73,-50,555,-913,22.6,3.2,-23.9,22.8,3.3,-23.5,5.73,2.33,-27.0,27.6
2012-04-13 00:40:00,0.0,1.9441,0.0013,403.58,0.38,89.4,40.1,138.11,28.26,24.62,36.34,0.04,-272.73,-272.74,-50,555,-913,22.7,3.3,-23.8,22.8,3.4,-23.3,5.73,2.29,-26.9,27.6
2012-04-13 00:41:00,0.0,1.9470,0.0015,403.64,0.40,96.9,36.1,138.11,28.27,24.61,36.34,0.04,-272.73,-272.73,-50,555,-913,22.7,3.3,-23.7,22.8,3.4,-23.3,5.73,2.29,-26.9,27.7
2012-04-13 00:42:00,0.0,1.9494,0.0013,403.69,0.45,93.5,36.7,138.11,28.28,24.61,36.35,0.04,-272.74,-272.74,-50,555,-913,22.7,3.3,-23.6,22.8,3.4,-23.2,5.73,2.34,-26.8,27.6
2012-04-13 00:43:00,0.0,1.9498,0.0021,403.73,0.40,102.5,32.2,138.11,28.29,24.61,36.35,0.04,-272.74,-272.74,-50,556,-914,22.7,3.3,-23.5,22.9,3.4,-23.1,5.73,2.38,-26.7,27.7
2012-04-13 00:44:00,0.0,1.9450,0.0011,403.53,0.37,113.0,33.0,138.10,28.30,24.62,36.36,0.04,-272.74,-272.73,-50,556,-914,22.8,3.4,-23.4,22.9,3.5,-23.0,5.73,2.37,-26.7,27.7
2012-04-13 00:45:00,0.0,1.9486,0.0011,403.69,0.39,108.8,31.8,138.10,28.32,24.62,36.35,0.04,-272.73,-272.74,-50,556,-913,22.8,3.4,-23.2,22.9,3.5,-22.8,5.73,2.31,-26.6,27.8
2012-04-13 00:46:00,0.0,1.9492,0.0010,403.64,0.42,115.1,37.4,138.10,28.33,24.62,36.35,0.04,-272.74,-272.74,-50,556,-913,22.9,3.4,-23.2,22.9,3.5,-22.8,5.73,2.28,-26.6,27.8
2012-04-13 00:47:00,0.0,1.9492,0.0011,403.67,0.39,111.5,32.8,138.10,28.34,24.62,36.35,0.04,-272.74,-272.74,-50,556,-914,22.9,3.4,-23.1,23.0,3.5,-22.7,5.73,2.31,-26.6,27.5
2012-04-13 00:48:00,0.0,1.9507,0.0010,403.69,0.48,107.6,34.6,138.11,28.35,24.61,36.35,0.04,-272.74,-272.74,-51,556,-914,22.9,3.4,-23.0,23.0,3.6,-22.6,5.73,2.43,-26.7,26.9
2012-04-13 00:49:00,0.0,1.9503,0.0013,403.70,0.46,94.7,38.3,138.11,28.35,24.62,36.35,0.04,-272.74,-272.74,-50,557,-914,22.9,3.4,-23.1,22.9,3.6,-22.6,5.73,2.25,-26.8,26.5
2012-04-13 00:50:00,0.0,1.9515,0.0010,403.65,0.47,83.0,34.2,138.12,28.34,24.61,36.34,0.04,-272.74,-272.74,-50,557,-914,22.8,3.4,-23.1,22.9,3.6,-22.7,5.73,2.37,-27.0,26.2
2012-04-13 00:51:00,0.0,1.9510,0.0009,403.69,0.45,71.9,32.3,138.12,28.34,24.62,36.34,0.04,-272.73,-272.74,-51,557,-914,22.8,3.4,-23.1,22.8,3.5,-22.8,5.73,2.41,-27.1,26.0
2012-04-13 00:52:00,0.0,1.9473,0.0029,403.48,0.44,69.8,39.3,138.13,28.32,24.62,36.34,0.04,-272.73,-272.73,-50,557,-914,22.7,3.4,-23.1,22.7,3.6,-22.8,5.73,2.23,-27.3,25.7
2012-04-13 00:53:00,0.0,1.9452,0.0027,403.54,0.37,55.6,33.7,138.13,28.31,24.62,36.34,0.04,-272.74,-272.74,-50,556,-915,22.7,3.4,-23.2,22.7,3.6,-22.8,5.73,2.36,-27.4,25.5
2012-04-13 00:54:00,0.0,1.9460,0.0021,403.53,0.47,44.5,34.6,138.14,28.29,24.62,36.33,0.04,-272.74,-272.74,-51,556,-914,22.7,3.4,-23.3,22.6,3.5,-23.0,5.73,2.44,-27.5,25.6
2012-04-13 00:55:00,0.0,1.9426,0.0012,403.32,0.43,41.5,32.0,138.14,28.26,24.62,36.34,0.04,-272.74,-272.74,-51,556,-914,22.6,3.3,-23.6,22.6,3.4,-23.3,5.73,2.29,-27.6,25.5
2012-04-13 00:56:00,0.0,1.9407,0.0012,403.16,0.43,30.9,24.0,138.15,28.24,24.62,36.33,0.04,-272.74,-272.74,-51,556,-914,22.6,3.3,-23.9,22.5,3.4,-23.5,5.73,2.27,-27.7,25.5
2012-04-13 00:57:00,0.0,1.9419,0.0015,403.23,0.41,28.7,34.0,138.15,28.22,24.62,36.33,0.04,-272.74,-272.74,-50,555,-914,22.5,3.2,-24.2,22.5,3.3,-23.8,5.73,2.45,-27.8,26.0
2012-04-13 00:58:00,0.0,1.9447,0.0011,403.27,0.42,35.8,31.2,138.15,28.20,24.61,36.33,0.04,-272.74,-272.73,-51,555,-914,22.5,3.1,-24.3,22.5,3.3,-23.9,5.73,2.24,-27.7,26.3
2012-04-13 00:59:00,0.0,1.9458,0.0011,403.28,0.41,34.7,35.8,138.14,28.19,24.61,36.33,0.04,-272.74,-272.74,-51,555,-914,22.5,3.1,-24.3,22.5,3.3,-23.9,5.73,2.36,-27.6,26.6
2012-04-13 01:00:00,0.0,1.9465,0.0011,403.21,0.38,43.8,32.5,138.14,28.18,24.61,36.33,0.04,-272.74,-272.74,-50,554,-915,22.5,3.2,-24.2,22.5,3.3,-23.8,5.73,2.40,-27.5,26.8
2012-04-13 01:01:00,0.0,1.9473,0.0009,403.28,0.42,45.7,32.3,138.13,28.18,24.62,36.33,0.04,-272.73,-272.73,-50,555,-914,22.5,3.2,-24.1,22.5,3.3,-23.8,5.73,2.31,-27.4,26.9
2012-04-13 01:02:00,0.0,1.9475,0.0010,403.27,0.40,57.3,34.8,138.13,28.17,24.61,36.34,0.04,-272.74,-272.74,-51,554,-914,22.5,3.2,-24.1,22.6,3.3,-23.7,5.73,2.28,-27.4,27.1
2012-04-13 01:03:00,0.0,1.9474,0.0009,403.31,0.38,66.2,37.5,138.13,28.18,24.62,36.34,0.04,-272.74,-272.74,-50,555,-914,22.5,3.2,-23.9,22.6,3.3,-23.6,5.73,2.32,-27.3,27.2
2012-04-13 01:04:00,0.0,1.9473,0.0009,403.40,0.42,70.6,34.4,138.12,28.18,24.62,36.33,0.04,-272.73,-272.74,-50,555,-913,22.6,3.3,-23.9,22.6,3.4,-23.5,5.73,2.38,-27.2,27.2
2012-04-13 01:05:00,0.0,1.9480,0.0010,403.39,0.40,77.6,32.5,138.12,28.18,24.61,36.34,0.04,-272.73,-272.73,-51,555,-913,22.6,3.3,-23.8,22.7,3.4,-23.4,5.73,2.38,-27.1,27.3
2012-04-13 01:06:00,0.0,1.9484,0.0010,403.44,0.43,83.0,40.6,138.12,28.19,24.61,36.34,0.04,-272.73,-272.74,-50,555,-913,22.6,3.3,-23.8,22.7,3.4,-23.3,5.73,2.34,-27.0,27.4
2012-04-13 01:07:00,0.0,1.9489,0.0011,403.44,0.33,88.6,36.7,138.12,28.20,24.61,36.34,0.04,-272.74,-272.74,-50,555,-913,22.6,3.3,-23.6,22.7,3.4,-23.3,5.73,2.29,-27.0,27.4
2012-04-13 01:08:00,0.0,1.9487,0.0009,403.35,0.41,94.6,34.2,138.11,28.21,24.61,36.34,0.04,-272.73,-272.74,-50,555,-913,22.6,3.3,-23.6,22.7,3.4,-23.2,5.73,2.29,-26.9,27.5
2012-04-13 01:09:00,0.0,1.9486,0.0010,403.38,0.42,93.7,31.7,138.11,28.22,24.61,36.34,0.04,-272.74,-272.74,-51,555,-913,22.7,3.3,-23.7,22.7,3.4,-23.3,5.73,2.32,-26.8,27.5
2012-04-13 01:10:00,0.0,1.9480,0.0009,403.44,0.38,102.9,33.9,138.11,28.23,24.62,36.34,0.04,-272.74,-272.74,-52,555,-912,22.7,3.2,-23.9,22.8,3.4,-23.4,5.73,2.37,-26.8,27.6
2012-04-13 01:11:00,0.0,1.9468,0.0011,403.52,0.42,111.6,36.5,138.11,28.25,24.62,36.34,0.04,-272.73,-272.74,-50,556,-913,22.7,3.2,-23.9,22.8,3.3,-23.5,5.73,2.37,-26.7,27.6
2012-04-13 01:12:00,0.0,1.9469,0.0010,403.57,0.40,109.0,38.5,138.11,28.26,24.61,36.34,0.04,-272.74,-272.73,-50,555,-913,22.7,3.2,-24.0,22.8,3.3,-23.6,5.73,2.34,-26.6,27.6
2012-04-13 01:13:00,0.0,1.9463,0.0009,403.58,0.41,110.1,39.0,138.11,28.27,24.61,36.34,0.04,-272.74,-272.73,-50,555,-913,22.7,3.2,-24.0,22.8,3.3,-23.6,5.73,2.31,-26.6,27.7
2012-04-13 01:14:00,0.0,1.9456,0.0010,403.55,0.45,112.2,37.2,138.11,28.28,24.62,36.34,0.04,-272.74,-272.74,-50,556,-913,22.8,3.2,-23.9,22.9,3.3,-23.5,5.73,2.29,-26.5,27.7
2012-04-13 01:15:00,0.0,1.9466,0.0012,403.59,0.41,114.6,30.2,138.11,28.30,24.61,36.35,0.04,-272.74,-272.74,-50,556,-913,22.8,3.2,-23.9,22.9,3.3,-23.5,5.73,2.31,-26.5,27.7
2012-04-13 01:16:00,0.0,1.9456,0.0009,403.60,0.45,114.5,34.8,138.10,28.31,24.61,36.35,0.04,-272.74,-272.73,-50,556,-913,22.8,3.2,-23.7,22.9,3.3,-23.3,5.73,2.35,-26.4,27.8
2012-04-13 01:17:00,0.0,1.9460,0.0008,403.75,0.41,126.5,33.2,138.10,28.32,24.61,36.34,0.04,-272.74,-272.74,-50,556,-914,22.9,3.3,-23.6,22.9,3.4,-23.2,5.73,2.37,-26.4,27.9
2012-04-13 01:18:00,0.0,1.9463,0.0011,403.77,0.38,130.1,32.1,138.10,28.33,24.62,36.34,0.04,-272.74,-272.73,-50,556,-914,22.9,3.3,-23.5,23.0,3.4,-23.1,5.73,2.36,-26.3,27.9
2012-04-13 01:19:00,0.0,1.9473,0.0009,403.53,0.44,135.3,39.4,138.10,28.35,24.61,36.36,0.04,-272.74,-272.74,-50,556,-913,22.9,3.3,-23.4,23.0,3.4,-23.0,5.73,2.32,-26.2,27.9
2012-04-13 01:20:00,0.0,1.9467,0.0010,403.67,0.43,136.6,31.2,138.10,28.36,24.62,36.35,0.04,-272.74,-272.74,-50,556,-914,22.9,3.3,-23.4,23.0,3.4,-23.0,5.73,2.25,-26.2,27.6
2012-04-13 01:21:00,0.0,1.9460,0.0010,403.67,0.50,123.4,29.7,138.11,28.37,24.62,36.35,0.04,-272.73,-272.73,-50,557,-914,23.0,3.3,-23.4,23.0,3.4,-23.0,5.73,2.39,-26.3,27.0
2012-04-13 01:22:00,0.0,1.9462,0.0009,403.66,0.46,118.9,31.4,138.11,28.37,24.61,36.35,0.04,-272.73,-272.73,-51,557,-914,22.9,3.3,-23.4,23.0,3.4,-23.0,5.73,2.27,-26.4,26.5
2012-04-13 01:23:00,0.0,1.9454,0.0009,403.48,0.38,105.8,34.7,138.12,28.37,24.62,36.35,0.04,-272.74,-272.73,-51,557,-914,22.9,3.3,-23.4,22.9,3.4,-23.0,5.73,2.44,-26.6,26.3
2012-04-13 01:24:00,0.0,1.9458,0.0010,403.77,0.49,100.8,34.0,138.12,28.36,24.61,36.34,0.04,-272.73,-272.74,-50,557,-914,22.9,3.3,-23.4,22.9,3.4,-23.0,5.73,2.23,-26.7,26.0
2012-04-13 01:25:00,0.0,1.9452,0.0010,403.61,0.44,86.8,35.5,138.13,28.35,24.62,36.34,0.04,-272.73,-272.74,-51,557,-914,22.8,3.4,-23.3,22.8,3.5,-22.9,5.73,2.39,-26.9,25.8
2012-04-13 01:26:00,0.0,1.9447,0.0009,403.52,0.46,80.1,34.1,138.13,28.33,24.61,36.34,0.04,-272.74,-272.74,-51,556,-914,22.8,3.4,-23.3,22.8,3.5,-22.9,5.73,2.40,-27.0,25.7
2012-04-13 01:27:00,0.0,1.9436,0.0012,403.31,0.36,64.6,29.0,138.14,28.31,24.62,36.34,0.04,-272.74,-272.73,-51,557,-914,22.7,3.4,-23.4,22.7,3.5,-23.0,5.73,2.23,-27.1,25.5
2012-04-13 01:28:00,0.0,1.9426,0.0009,403.38,0.47,54.9,36.9,138.14,28.29,24.62,36.33,0.04,-272.74,-272.73,-51,556,-914,22.7,3.4,-23.4,22.7,3.5,-23.0,5.73,2.35,-27.2,25.4
2012-04-13 01:29:00,0.0,1.9418,0.0011,403.33,0.44,46.9,34.4,138.15,28.26,24.61,36.33,0.04,-272.73,-272.74,-51,556,-914,22.6,3.4,-23.3,22.6,3.5,-23.0,5.73,2.43,-27.3,25.4
2012-04-13 01:30:00,0.0,1.9413,0.0010,403.23,0.38,38.6,31.4,138.15,28.24,24.62,36.33,0.04,-272.74,-272.74,-51,556,-914,22.6,3.5,-23.1,22.5,3.6,-22.8,5.73,2.22,-27.4,25.9
2012-04-13 01:31:00,0.0,1.9413,0.0009,403.18,0.40,42.7,29.5,138.14,28.22,24.61,36.34,0.04,-272.74,-272.74,-51,556,-914,22.6,3.5,-23.0,22.5,3.6,-22.6,5.73,2.44,-27.3,26.3
2012-04-13 01:32:00,0.0,1.9411,0.0010,403.23,0.41,57.6,36.2,138.14,28.21,24.61,36.33,0.04,-272.73,-272.74,-51,555,-914,22.6,3.5,-23.0,22.6,3.6,-22.7,5.73,2.29,-27.2,26.6
2012-04-13 01:33:00,0.0,1.9409,0.0009,403.31,0.39,56.6,40.2,138.14,28.20,24.61,36.33,0.04,-272.73,-272.74,-51,555,-914,22.6,3.5,-23.0,22.6,3.6,-22.7,5.73,2.29,-27.1,26.8
2012-04-13 01:34:00,0.0,1.9417,0.0011,403.36,0.41,61.5,38.3,138.13,28.20,24.61,36.33,0.04,-272.74,-272.74,-51,556,-913,22.6,3.5,-23.1,22.6,3.6,-22.7,5.73,2.36,-27.1,26.9
2012-04-13 01:35:00,0.0,1.9418,0.0010,403.26,0.44,73.0,42.6,138.13,28.20,24.61,36.34,0.04,-272.73,-272.73,-48,557,-913,22.6,3.4,-23.2,22.7,3.5,-22.8,5.73,2.39,-27.0,27.1
2012-04-13 01:36:00,0.0,1.9428,0.0010,403.39,0.42,74.2,36.9,138.13,28.20,24.61,36.34,0.04,-272.74,-272.73,-51,555,-917,22.6,3.5,-23.1,22.7,3.6,-22.7,5.73,2.35,-26.9,27.2
2012-04-13 01:37:00,0.0,1.9432,0.0009,403.24,0.48,85.7,37.5,138.12,28.21,24.61,36.34,0.04,-272.74,-272.74,-51,555,-913,22.7,3.5,-23.0,22.7,3.6,-22.6,5.73,2.30,-26.8,27.3
2012-04-13 01:38:00,0.0,1.9429,0.0011,403.32,0.41,79.4,34.2,138.12,28.21,24.61,36.34,0.04,-272.74,-272.73,-51,555,-913,22.7,3.5,-22.9,22.7,3.6,-22.5,5.73,2.29,-26.7,27.4
2012-04-13 01:39:00,0.0,1.9432,0.0009,403.32,0.41,92.2,35.3,138.12,28.22,24.62,36.34,0.04,-272.74,-272.74,-50,555,-912,22.7,3.5,-23.0,22.8,3.6,-22.6,5.73,2.31,-26.7,27.4
2012-04-13 01:40:00,0.0,1.9423,0.0008,403.44,0.42,102.2,32.5,138.12,28.23,24.61,36.34,0.04,-272.74,-272.73,-51,555,-915,22.7,3.4,-23.2,22.8,3.6,-22.7,5.73,2.36,-26.6,27.5
2012-04-13 01:41:00,0.0,1.9426,0.0009,403.44,0.40,103.7,34.1,138.11,28.24,24.61,36.34,0.04,-272.73,-272.74,-50,553,-913,22.7,3.4,-23.1,22.8,3.6,-22.7,5.73,2.37,-26.5,27.6
2012-04-13 01:42:00,0.0,1.9432,0.0010,403.44,0.45,114.2,35.9,138.11,28.26,24.62,36.34,0.04,-272.74,-272.73,-50,555,-913,22.7,3.5,-23.1,22.8,3.6,-22.6,5.73,2.35,-26.4,27.6
2012-04-13 01:43:00,0.0,1.9440,0.0009,403.53,0.48,115.5,37.3,138.11,28.27,24.61,36.35,0.04,-272.74,-272.74,-50,556,-913,22.7,3.5,-23.0,22.8,3.6,-22.5,5.73,2.32,-26.4,27.7
2012-04-13 01:44:00,0.0,1.9440,0.0009,403.58,0.44,116.3,34.9,138.11,28.28,24.61,36.34,0.04,-272.73,-272.74,-50,555,-913,22.8,3.5,-22.8,22.9,3.6,-22.4,5.73,2.29,-26.3,27.7
2012-04-13 01:45:00,0.0,1.9439,0.0010,403.55,0.43,119.6,31.2,138.11,28.29,24.62,36.35,0.04,-272.74,-272.74,-50,556,-913,22.8,3.6,-22.6,22.9,3.7,-22.3,5.73,2.29,-26.2,27.7
2012-04-13 01:46:00,0.0,1.9442,0.0010,403.48,0.45,129.2,36.6,138.11,28.30,24.61,36.35,0.04,-272.74,-272.74,-51,556,-913,22.8,3.6,-22.5,22.9,3.7,-22.1,5.73,2.32,-26.2,27.8
2012-04-13 01:47:00,0.0,1.9437,0.0008,403.44,0.39,132.7,29.7,138.11,28.32,24.61,36.35,0.04,-272.74,-272.74,-50,556,-913,22.9,3.6,-22.4,22.9,3.8,-22.0,5.73,2.35,-26.1,27.9
2012-04-13 01:48:00,0.0,1.9443,0.0010,403.49,0.45,135.1,36.3,138.10,28.33,24.62,36.36,0.04,-272.74,-272.74,-50,556,-913,22.9,3.8,-22.0,23.0,3.9,-21.6,5.73,2.36,-26.1,28.0
2012-04-13 01:49:00,0.0,1.9447,0.0009,403.59,0.42,144.1,37.4,138.10,28.34,24.61,36.35,0.04,-272.73,-272.74,-50,556,-913,22.9,3.8,-21.8,23.0,4.0,-21.3,5.73,2.35,-26.0,28.0
2012-04-13 01:50:00,0.0,1.9451,0.0008,403.58,0.43,144.0,32.4,138.10,28.36,24.61,36.35,0.04,-272.74,-272.74,-50,556,-913,23.0,3.9,-21.7,23.0,4.0,-21.3,5.73,2.31,-26.0,27.9
2012-04-13 01:51:00,0.0,1.9454,0.0011,403.63,0.44,142.1,32.6,138.10,28.37,24.62,36.35,0.04,-272.74,-272.74,-51,556,-913,23.0,3.9,-21.4,23.1,4.1,-21.0,5.73,2.25,-25.9,27.8
2012-04-13 01:52:00,0.0,1.9455,0.0011,403.61,0.40,158.5,32.2,138.10,28.39,24.61,36.35,0.04,-272.74,-272.74,-50,557,-914,23.0,4.0,-21.2,23.1,4.2,-20.7,5.73,2.37,-25.9,27.2
2012-04-13 01:53:00,0.0,1.9450,0.0010,403.60,0.40,136.2,33.6,138.11,28.39,24.62,36.35,0.04,-272.74,-272.74,-51,557,-914,23.0,4.0,-21.2,23.1,4.2,-20.7,5.73,2.33,-26.0,26.7
2012-04-13 01:54:00,0.0,1.9448,0.0009,403.49,0.44,127.2,35.3,138.11,28.39,24.62,36.35,0.04,-272.74,-272.74,-50,557,-914,23.0,4.1,-21.1,23.0,4.2,-20.6,5.73,2.36,-26.1,26.4
2012-04-13 01:55:00,0.0,1.9440,0.0009,403.48,0.41,114.9,34.9,138.12,28.38,24.62,36.35,0.04,-272.73,-272.73,-51,557,-914,22.9,4.1,-20.9,23.0,4.3,-20.5,5.73,2.26,-26.3,26.2
2012-04-13 01:56:00,0.0,1.9435,0.0010,403.55,0.38,100.4,38.5,138.12,28.38,24.62,36.35,0.04,-272.73,-272.74,-51,557,-914,22.9,4.1,-21.0,22.9,4.2,-20.6,5.73,2.45,-26.4,26.0
2012-04-13 01:57:00,0.0,1.9430,0.0010,403.40,0.43,95.8,32.2,138.13,28.36,24.62,36.34,0.04,-272.74,-272.74,-51,557,-914,22.9,4.0,-21.3,22.9,4.2,-20.9,5.73,2.26,-26.6,25.8
2012-04-13 01:58:00,0.0,1.9426,0.0009,403.42,0.36,89.7,36.8,138.13,28.35,24.61,36.34,0.04,-272.73,-272.74,-51,557,-914,22.8,4.0,-21.3,22.8,4.2,-20.9,5.73,2.32,-26.7,25.6
2012-04-13 01:59:00,0.0,1.9420,0.0012,403.43,0.43,70.5,43.1,138.14,28.33,24.61,36.34,0.04,-272.74,-272.74,-51,557,-914,22.8,4.1,-21.1,22.7,4.2,-20.8,5.73,2.44,-26.8,25.5
2012-04-13 02:00:00,1.0,1.9030,0.0271,386.94,11.34,73.4,35.9,138.14,28.31,24.61,36.35,0.04,-272.73,-272.74,-51,514,-914,22.7,4.2,-20.8,22.7,4.4,-20.5,5.73,2.26,-26.9,25.4
2012-04-13 02:01:00,1.0,1.8719,0.0010,374.18,0.44,66.0,28.1,138.15,28.28,24.62,36.35,0.04,-272.74,-272.74,-51,513,-914,22.7,4.3,-20.7,22.6,4.4,-20.4,5.73,2.31,-27.0,25.6
2012-04-13 02:02:00,1.0,1.8712,0.0010,374.21,0.43,69.5,36.7,138.14,28.26,24.62,36.35,0.04,-272.73,-272.74,-51,514,-914,22.7,4.3,-20.6,22.6,4.5,-20.3,5.73,2.39,-27.0,26.1
2012-04-13 02:03:00,1.0,1.8714,0.0010,374.22,0.41,81.1,37.7,138.14,28.25,24.62,36.35,0.04,-272.73,-272.74,-51,514,-914,22.7,4.3,-20.6,22.6,4.4,-20.3,5.73,2.33,-26.9,26.5
2012-04-13 02:04:00,1.0,1.8715,0.0010,374.18,0.34,91.1,34.8,138.14,28.23,24.62,36.35,0.04,-272.74,-272.74,-51,515,-913,22.7,4.3,-20.6,22.7,4.4,-20.3,5.73,2.26,-26.8,26.8
2012-04-13 02:05:00,0.0,1.9103,0.0268,390.47,11.34,84.5,37.9,138.13,28.23,24.62,36.34,0.04,-272.74,-272.74,-51,555,-914,22.7,4.3,-20.6,22.7,4.4,-20.3,5.73,2.32,-26.7,27.0
2012-04-13 02:06:00,0.0,1.9409,0.0010,403.16,0.43,92.7,37.1,138.13,28.23,24.61,36.34,0.04,-272.73,-272.73,-51,555,-913,22.7,4.3,-20.5,22.7,4.5,-20.1,5.73,2.39,-26.6,27.2
2012-04-13 02:07:00,0.0,1.9414,0.0009,403.31,0.45,91.9,34.0,138.13,28.23,24.61,36.34,0.04,-272.74,-272.74,-51,555,-913,22.7,4.4,-20.4,22.8,4.5,-20.1,5.73,2.35,-26.5,27.3
2012-04-13 02:08:00,0.0,1.9418,0.0010,403.23,0.38,104.8,39.4,138.12,28.23,24.62,36.34,0.04,-272.74,-272.74,-51,556,-913,22.8,4.4,-20.3,22.8,4.5,-20.0,5.73,2.31,-26.4,27.4
2012-04-13 02:09:00,0.0,1.9427,0.0009,403.31,0.36,103.5,31.6,138.12,28.24,24.61,36.35,0.04,-272.74,-272.73,-51,556,-913,22.8,4.4,-20.4,22.8,4.5,-20.1,5.73,2.29,-26.3,27.5
2012-04-13 02:10:00,0.0,1.9425,0.0011,403.42,0.41,113.1,32.1,138.12,28.25,24.61,36.34,0.04,-272.74,-272.74,-51,555,-913,22.9,4.4,-20.3,22.9,4.5,-19.9,5.73,2.31,-26.3,27.5
2012-04-13 02:11:00,0.0,1.9425,0.0009,403.45,0.41,120.5,39.1,138.12,28.26,24.61,36.34,0.04,-272.74,-272.74,-50,556,-913,22.9,4.4,-20.2,22.9,4.6,-19.8,5.73,2.34,-26.2,27.6
2012-04-13 02:12:00,0.0,1.9431,0.0010,403.45,0.45,119.2,29.1,138.11,28.27,24.61,36.34,0.04,-272.73,-272.73,-50,556,-913,22.9,4.4,-20.1,22.9,4.6,-19.7,5.73,2.37,-26.1,27.7
2012-04-13 02:13:00,0.0,1.9426,0.0010,403.32,0.38,119.5,36.7,138.11,28.28,24.61,36.35,0.04,-272.73,-272.74,-51,556,-913,22.9,4.5,-20.0,22.9,4.6,-19.7,5.73,2.37,-26.1,27.8
2012-04-13 02:14:00,0.0,1.9430,0.0010,403.45,0.42,135.0,34.5,138.11,28.30,24.61,36.35,0.04,-272.74,-272.74,-51,556,-913,22.9,4.5,-19.9,23.0,4.6,-19.6,5.73,2.34,-26.0,27.8
2012-04-13 02:15:00,0.0,1.9430,0.0010,403.51,0.44,145.3,42.1,138.11,28.31,24.61,36.34,0.04,-272.74,-272.74,-51,556,-913,23.0,4.5,-19.8,23.0,4.7,-19.4,5.73,2.31,-25.9,27.9
2012-04-13 02:16:00,0.0,1.9426,0.0011,403.48,0.46,145.4,37.0,138.11,28.32,24.61,36.35,0.04,-272.74,-272.74,-50,556,-913,23.0,4.5,-19.9,23.0,4.6,-19.5,5.73,2.29,-25.9,28.0
2012-04-13 02:17:00,0.0,1.9426,0.0011,403.47,0.43,144.6,31.0,138.11,28.34,24.61,36.35,0.04,-272.73,-272.74,-50,556,-913,23.0,4.5,-19.8,23.1,4.7,-19.4,5.73,2.30,-25.8,28.0